Brownsville, TX

9:46 PM CDT on May 27, 2017 (GMT -0500)
Brownsville-South Padre I International

Weather History for KBRO - October, 2013

Change the Weather History Date:

Sunday, October 27, 2013

  Actual Average Record
Temperature  
Mean Temperature 78 °F 74 °F  
Max Temperature 88 °F 84 °F 93 °F (1902)
Min Temperature 67 °F 65 °F 45 °F (1913)
Degree Days  
Heating Degree Days 0 0  
Month to date heating degree days 0 0  
Since 1 July heating degree days 0 0  
Cooling Degree Days 13 10  
Month to date cooling degree days 310 319  
Year to date cooling degree days 3880 3730  
Growing Degree Days 27 (Base 50)    
Moisture  
Dew Point 66 °F    
Average Humidity 70    
Maximum Humidity 93    
Minimum Humidity 46    
Precipitation  
Precipitation 0.00 in 0.09 in 5.77 in (1976)
Month to date precipitation 1.38 3.41  
Year to date precipitation 23.31 24.14  
Sea Level Pressure  
Sea Level Pressure 30.02 in    
Wind  
Wind Speed 5 mph (ESE)    
Max Wind Speed 16 mph    
Max Gust Speed 18 mph    
Visibility 10 miles    
Events      
T = Trace of Precipitation, MM = Missing Value Source: NWS Daily Summary

Daily Weather History Graph

Daily Weather History Graph

Search for Another Location

Airport or City:

Trip Planner

Search our weather history database for the weather conditions in past years. The results will help you decide how hot, cold, wet, or windy it might be!

Date:

Astronomy

Oct. 27, 2013 Rise Set
Actual Time 7:35 AM CDT 6:51 PM CDT
Civil Twilight 7:11 AM CDT 7:14 PM CDT
Nautical Twilight 6:44 AM CDT 7:42 PM CDT
Astronomical Twilight 6:17 AM CDT 8:08 PM CDT
Moon 1:12 AM CDT (10/27) 2:25 PM CDT (10/27)
Length of Visible Light 12h 03m
Length of Day
11h 16m
Last Quarter, 43% of the Moon is Illuminated
Oct 27
Last Quarter
Nov 3
New
Nov 9
First Quarter
Nov 17
Full
Nov 25
Last Quarter

Hourly Weather History & Observations

Time (CDT) Temp. Heat Index Dew Point Humidity Pressure Visibility Wind Dir Wind Speed Gust Speed Precip Events Conditions
12:53 AM 70.0 °F - 64.9 °F 84% 30.05 in 10.0 mi SE 3.5 mph - N/A   Clear
1:53 AM 69.1 °F - 66.0 °F 90% 30.03 in 10.0 mi Calm Calm - N/A   Clear
2:53 AM 69.1 °F - 66.0 °F 90% 30.02 in 10.0 mi Calm Calm - N/A   Clear
3:53 AM 69.1 °F - 66.0 °F 90% 30.01 in 10.0 mi Calm Calm - N/A   Scattered Clouds
4:53 AM 68.0 °F - 64.9 °F 90% 30.00 in 10.0 mi Calm Calm - N/A   Clear
5:53 AM 66.9 °F - 64.9 °F 93% 30.01 in 10.0 mi Calm Calm - N/A   Partly Cloudy
6:53 AM 66.9 °F - 64.9 °F 93% 30.02 in 10.0 mi NE 3.5 mph - N/A   Clear
7:53 AM 66.9 °F - 64.9 °F 93% 30.04 in 10.0 mi Calm Calm - N/A   Partly Cloudy
8:53 AM 73.0 °F - 68.0 °F 84% 30.05 in 10.0 mi Calm Calm - N/A   Clear
9:53 AM 80.1 °F 82.7 °F 68.0 °F 67% 30.06 in 10.0 mi ESE 4.6 mph - N/A   Clear
10:53 AM 82.0 °F 84.5 °F 66.9 °F 60% 30.07 in 10.0 mi ESE 5.8 mph - N/A   Scattered Clouds
11:53 AM 84.0 °F 86.3 °F 66.0 °F 55% 30.07 in 10.0 mi East 8.1 mph - N/A   Partly Cloudy
12:53 PM 86.0 °F 87.6 °F 64.9 °F 49% 30.04 in 10.0 mi ESE 8.1 mph 17.3 mph N/A   Partly Cloudy
1:53 PM 87.1 °F 88.3 °F 64.0 °F 46% 30.01 in 10.0 mi SE 8.1 mph - N/A   Clear
2:53 PM 87.1 °F 88.3 °F 64.0 °F 46% 29.99 in 10.0 mi SSE 11.5 mph 17.3 mph N/A   Partly Cloudy
3:53 PM 84.0 °F 85.8 °F 64.9 °F 53% 29.98 in 10.0 mi SE 12.7 mph - N/A   Mostly Cloudy
4:53 PM 82.9 °F 85.4 °F 66.9 °F 58% 29.98 in 10.0 mi ESE 13.8 mph - N/A   Partly Cloudy
5:53 PM 82.0 °F 84.5 °F 66.9 °F 60% 29.98 in 10.0 mi SE 12.7 mph - N/A   Partly Cloudy
6:53 PM 79.0 °F - 66.0 °F 64% 29.99 in 10.0 mi SE 8.1 mph - N/A   Clear
7:53 PM 75.0 °F - 66.9 °F 76% 29.99 in 10.0 mi ESE 5.8 mph - N/A   Clear
8:53 PM 75.0 °F - 66.9 °F 76% 30.01 in 10.0 mi ESE 4.6 mph - N/A   Clear
9:53 PM 73.9 °F - 68.0 °F 82% 30.02 in 10.0 mi SE 4.6 mph - N/A   Clear
10:53 PM 73.0 °F - 68.0 °F 84% 30.02 in 10.0 mi SE 5.8 mph - N/A   Clear
11:53 PM 73.0 °F - 68.0 °F 84% 30.01 in 10.0 mi ESE 4.6 mph - N/A   Clear